sat.trackr.live / text

‹ back to catalog

STARLINK-5355

NORAD 57139 · 2023-090AQ

PAYLOAD ACTIVE UNKNOWN

§ Identity

Operator
Country
US
Launch date
2023-06-23
Launch site
AFETR
Launch vehicle
Mass (kg)
RCS (m²)

Purposes: comms

External: N2YO · Heavens-Above · Gunter

§ Orbital elements

Epoch: 2026-05-25T04:04:34.790304Z

Period
94.27 min
Inclination
43.0031°
Eccentricity
0.0001299
Mean motion
15.27573393 rev/d
Perigee alt
482.2 km
Apogee alt
484.0 km
Semi-major
6,861.2 km
B*
7.7726e-5
RAAN
191.1166°
Arg perigee
272.4267°
Mean anomaly
87.6436°
Rev number
16,205

§ Raw data

STARLINK-53551 57139U 23090AQ  26145.16984711  .00001877  00000+0  77726-4 0  99992 57139  43.0031 191.1166 0001299 272.4267  87.6436 15.27573393162057

JSON: /api/v1/satellites/57139 · /tle

For live sub-satellite position, see the globe view (requires WebGL).

§ Visibility from observer

Set your observer location to see the next 7 days of passes ≥ 10°. The values pass through the URL so the page stays shareable.

No JS? Fill the form by hand. The geolocation button needs JavaScript.